{"data":{"norad_id":48785,"epoch":"2026-05-24T20:00:02.724768Z","epoch_age_seconds":85480,"freshness":"FRESH","line1":"1 48785U 21045U   26144.83336487 -.00000081  00000+0 -24967-3 0  9994","line2":"2 48785  87.9002 263.8343 0001546 102.6230 257.5074 13.15549398241330","mean_motion":13.15549398,"eccentricity":0.0001546,"inclination_deg":87.9002,"raan_deg":263.8343,"arg_perigee_deg":102.623,"mean_anomaly_deg":257.5074,"bstar":-0.00024967,"rev_number":24133,"period_min":109.45997179499,"perigee_km":1200.595656897,"apogee_km":1202.9393633715,"semimajor_km":7579.9045101342,"source":"CELESTRAK","updated_at":"2026-05-25T13:38:22.445233Z"}}